[[{"header":{"parameterUnit":"m.s-1","parameterCategory":2,"la1":30.2992,"la2":30.254,"lo1":-89.0895,"lo2":-89.0443,"dy":0.0025,"dx":0.0025,"nx":19,"ny":19,"refTime":"2026-05-12T09:00:00:Z","depth":"0","parameterNumber":2,"parameterNumberName":"U-component_of_CURRENTS"},"data":[0,0,0,-0.0812,-0.081,-0.0687,-0.0687,-0.0556,-0.0555,0,0,0,0,0,0,0,0,0,0,0,-0.0855,-0.0855,-0.0812,-0.0809,-0.0687,-0.0687,-0.0556,-0.0555,0,0,0,0,0,0,0,0,0,0,0,-0.0856,-0.0855,-0.0854,-0.0809,-0.0687,-0.0687,-0.0556,-0.0641,0,0,0,0,0,0,0,0,0,0,-0.0757,-0.0813,-0.0855,-0.0854,-0.0808,-0.0687,-0.0686,-0.0645,-0.0636,-0.0619,0,-0.0599,0,-0.0575,-0.0547,-0.0546,0,0,0,-0.0806,-0.0821,-0.0769,-0.0854,-0.0807,-0.0688,-0.0741,-0.064,-0.0629,-0.0608,-0.0597,-0.0592,-0.0572,-0.0546,-0.0545,-0.052,-0.0521,0,0,-0.0813,-0.085,-0.0776,-0.0762,-0.0774,-0.0745,-0.0738,-0.0633,-0.0634,-0.0597,-0.0589,-0.057,-0.0545,-0.0544,-0.0519,-0.052,0,0,0,-0.0834,-0.0856,-0.0806,-0.0768,-0.0744,-0.0742,-0.0733,-0.0639,-0.0616,-0.0587,-0.0569,-0.0544,-0.0543,-0.0519,-0.052,-0.0581,0,0,0,-0.0838,-0.0868,-0.0809,-0.0832,-0.0746,-0.0691,-0.0741,-0.0624,-0.0611,-0.0569,-0.0544,-0.0542,-0.0518,-0.0519,-0.0578,-0.0589,0,0,0,-0.0861,-0.0871,-0.0851,-0.0834,-0.078,-0.0692,-0.0664,-0.062,-0.06,-0.0546,-0.0542,-0.0518,-0.0519,-0.0576,-0.0585,-0.0598,0,0,0,-0.091,-0.0885,-0.0853,-0.0827,-0.0781,-0.0734,-0.0664,-0.0625,-0.0586,-0.0544,-0.0518,-0.052,-0.0575,-0.0582,-0.0596,-0.0681,-0.0699,0,0,-0.0903,-0.0886,-0.0869,-0.0837,-0.0796,-0.075,-0.0735,-0.065,-0.0604,-0.0552,-0.055,-0.0579,-0.0584,-0.0598,-0.0764,-0.0779,0,0,0,-0.0884,-0.0867,-0.0853,-0.082,-0.0783,-0.0762,-0.0698,-0.0679,-0.0634,-0.0586,-0.0591,-0.0592,-0.0599,-0.0646,-0.0659,-0.0657,-0.0526,-0.0526,-0.0526,-0.0908,-0.0878,-0.0856,-0.0817,-0.0803,-0.0771,-0.0756,-0.0721,-0.0677,-0.0682,-0.0653,-0.0716,-0.0771,-0.078,-0.0779,-0.0672,-0.0673,-0.0673,-0.0673,-0.0892,-0.0867,-0.0856,-0.0821,-0.0812,-0.0803,-0.0787,-0.077,-0.0759,-0.0725,-0.0728,-0.0722,-0.0797,-0.0791,-0.0677,-0.0676,-0.0676,-0.0675,-0.0675,-0.0896,-0.0877,-0.0864,-0.0832,-0.0823,-0.081,-0.0822,-0.0814,-0.0795,-0.0808,-0.0838,-0.0838,-0.082,-0.081,-0.081,-0.081,-0.081,-0.081,-0.081,-0.0896,-0.0881,-0.0864,-0.0838,-0.0822,-0.0821,-0.0841,-0.0858,-0.0898,-0.0902,-0.0903,-0.0859,-0.0757,-0.0738,-0.0812,-0.0812,-0.0812,-0.0811,-0.0811,-0.0862,-0.0878,-0.0846,-0.0833,-0.081,-0.0838,-0.0877,-0.0981,-0.0999,-0.1038,-0.1017,-0.095,-0.0929,-0.092,-0.0904,-0.1017,-0.1017,-0.1017,-0.1017,-0.0851,-0.0853,-0.0821,-0.0802,-0.0802,-0.0837,-0.0968,-0.1087,-0.1144,-0.1153,-0.1099,-0.1102,-0.1094,-0.108,-0.1067,-0.1053,-0.1201,-0.1201,-0.1201,-0.0827,-0.0821,-0.0794,-0.0784,-0.0785,-0.0855,-0.0999,-0.1165,-0.123,-0.1203,-0.1081,-0.1074,-0.1067,-0.1054,-0.102,-0.1003,-0.0975,0,0]},{"header":{"parameterUnit":"m.s-1","parameterCategory":2,"la1":30.2992,"la2":30.254,"lo1":-89.0895,"lo2":-89.0443,"dy":0.0025,"dx":0.0025,"nx":19,"ny":19,"refTime":"2026-05-12T09:00:00:Z","depth":"0","parameterNumber":3,"parameterNumberName":"V-component_of_CURRENTS"},"data":[0,0,0,-0.0193,-0.0196,-0.032,-0.0321,-0.0458,-0.0459,0,0,0,0,0,0,0,0,0,0,0,-0.0147,-0.0148,-0.0193,-0.0196,-0.032,-0.0321,-0.0458,-0.0459,0,0,0,0,0,0,0,0,0,0,0,-0.0147,-0.0148,-0.0149,-0.0197,-0.032,-0.0321,-0.0457,-0.037,0,0,0,0,0,0,0,0,0,0,-0.0253,-0.02,-0.0148,-0.0149,-0.0197,-0.032,-0.0321,-0.0366,-0.0376,-0.0393,0,-0.041,0,-0.0437,-0.0467,-0.0468,0,0,0,-0.0202,-0.0192,-0.0237,-0.0149,-0.0198,-0.032,-0.0266,-0.0372,-0.0382,-0.0406,-0.0412,-0.0418,-0.0439,-0.0468,-0.0469,-0.0536,-0.0536,0,0,-0.0195,-0.0161,-0.023,-0.0243,-0.0228,-0.0262,-0.027,-0.0379,-0.0381,-0.0413,-0.0422,-0.0442,-0.0469,-0.047,-0.0537,-0.0536,0,0,0,-0.0171,-0.0156,-0.0199,-0.0237,-0.0262,-0.0265,-0.0274,-0.0376,-0.0393,-0.0423,-0.0443,-0.0469,-0.0471,-0.0537,-0.0537,-0.0517,0,0,0,-0.0167,-0.0143,-0.0195,-0.0175,-0.026,-0.0321,-0.0269,-0.0386,-0.0399,-0.0443,-0.0469,-0.0472,-0.0537,-0.0537,-0.0518,-0.0512,0,0,0,-0.0142,-0.014,-0.0156,-0.0174,-0.0227,-0.032,-0.0344,-0.0389,-0.0411,-0.0468,-0.0472,-0.0537,-0.0537,-0.0519,-0.0514,-0.0481,0,0,0,-0.0102,-0.0133,-0.0155,-0.02,-0.0226,-0.0312,-0.0343,-0.0407,-0.0453,-0.047,-0.0537,-0.0537,-0.0519,-0.0515,-0.0482,-0.0486,-0.048,0,0,-0.0123,-0.0134,-0.0165,-0.0188,-0.0268,-0.0296,-0.0361,-0.0429,-0.045,-0.0501,-0.0504,-0.0518,-0.0514,-0.0482,-0.0463,-0.0458,0,0,0,-0.0161,-0.0186,-0.0213,-0.0264,-0.032,-0.0362,-0.0422,-0.0432,-0.0469,-0.0475,-0.0515,-0.0513,-0.0493,-0.0498,-0.0494,-0.0327,-0.0535,-0.0535,-0.0535,-0.0153,-0.02,-0.0257,-0.0319,-0.036,-0.0412,-0.0431,-0.0452,-0.0479,-0.0473,-0.0495,-0.0456,-0.0461,-0.0458,-0.0285,-0.0492,-0.0492,-0.0492,-0.0492,-0.0207,-0.0253,-0.0292,-0.0363,-0.0395,-0.0439,-0.0458,-0.0457,-0.0449,-0.0471,-0.0453,-0.0475,-0.0453,-0.027,-0.049,-0.0491,-0.0491,-0.0491,-0.0491,-0.0221,-0.0249,-0.029,-0.0373,-0.0418,-0.0455,-0.047,-0.0462,-0.0436,-0.0418,-0.0414,-0.0415,-0.0255,-0.0405,-0.0405,-0.0405,-0.0405,-0.0405,-0.0405,-0.0219,-0.0264,-0.0314,-0.0388,-0.0431,-0.047,-0.0473,-0.0453,-0.0411,-0.0393,-0.0393,-0.0217,-0.043,-0.0434,-0.0402,-0.0402,-0.0403,-0.0403,-0.0403,-0.0266,-0.0259,-0.0342,-0.0389,-0.0485,-0.0541,-0.0523,-0.0475,-0.0417,-0.0389,-0.0152,-0.0372,-0.0376,-0.0379,-0.0382,-0.0339,-0.0339,-0.0339,-0.0339,-0.027,-0.0281,-0.0374,-0.0453,-0.0529,-0.0579,-0.0598,-0.0514,-0.0264,-0.01,-0.0027,-0.0023,-0.0034,-0.0016,-0.0027,-0.0023,0.0111,0.0112,0.0113,-0.0297,-0.0319,-0.0386,-0.0462,-0.056,-0.0626,-0.0661,-0.0533,-0.0088,0.0151,0.0215,0.0196,0.022,0.019,0.0226,0.0197,0.0205,0,0]}],[{"header":{"parameterUnit":"m.s-1","parameterCategory":2,"la1":30.2992,"la2":30.254,"lo1":-89.0895,"lo2":-89.0443,"dy":0.0025,"dx":0.0025,"nx":19,"ny":19,"refTime":"2026-05-12T09:00:00:Z","depth":"2","parameterNumber":2,"parameterNumberName":"U-component_of_CURRENTS"},"data":[0,0,0,-0.1124,-0.1125,-0.1172,-0.1172,-0.1264,-0.1265,0,0,0,0,0,0,0,0,0,0,0,-0.1085,-0.1085,-0.1124,-0.1125,-0.1172,-0.1172,-0.1264,-0.1265,0,0,0,0,0,0,0,0,0,0,0,-0.1085,-0.1085,-0.1085,-0.1125,-0.1172,-0.1172,-0.1264,-0.1219,0,0,0,0,0,0,0,0,0,0,-0.1169,-0.113,-0.1085,-0.1085,-0.1125,-0.1172,-0.1172,-0.1217,-0.1222,-0.1253,0,-0.1246,0,-0.1271,-0.1273,-0.1273,0,0,0,-0.112,-0.1125,-0.1144,-0.1085,-0.1126,-0.1172,-0.115,-0.122,-0.1226,-0.1261,-0.1248,-0.1252,-0.1273,-0.1273,-0.1274,-0.1394,-0.1394,0,0,-0.1118,-0.1094,-0.1139,-0.1147,-0.1121,-0.1148,-0.1151,-0.1223,-0.122,-0.1248,-0.1254,-0.1274,-0.1274,-0.1275,-0.1393,-0.1394,0,0,0,-0.1113,-0.1092,-0.1108,-0.1142,-0.1156,-0.115,-0.1153,-0.1216,-0.1222,-0.1256,-0.1275,-0.1275,-0.1276,-0.1393,-0.1394,-0.1373,0,0,0,-0.1112,-0.1091,-0.1106,-0.1093,-0.1154,-0.1184,-0.1144,-0.1216,-0.1226,-0.1275,-0.1275,-0.1277,-0.1392,-0.1393,-0.1372,-0.1357,0,0,0,-0.1086,-0.1089,-0.1089,-0.1092,-0.1118,-0.1183,-0.1193,-0.1218,-0.1239,-0.1273,-0.1278,-0.1392,-0.1393,-0.1372,-0.1357,-0.1391,0,0,0,-0.1068,-0.1081,-0.1088,-0.1128,-0.1117,-0.1207,-0.1192,-0.1242,-0.1272,-0.1275,-0.1392,-0.1393,-0.1371,-0.1356,-0.139,-0.1465,-0.1474,0,0,-0.1084,-0.1082,-0.1115,-0.1124,-0.121,-0.1201,-0.1286,-0.1298,-0.1302,-0.1369,-0.1372,-0.1372,-0.1357,-0.1391,-0.1533,-0.154,0,0,0,-0.1124,-0.1132,-0.1167,-0.1211,-0.1276,-0.1307,-0.1337,-0.1344,-0.136,-0.1326,-0.1402,-0.1394,-0.1416,-0.146,-0.1467,-0.1399,-0.1399,-0.1399,-0.1399,-0.1115,-0.1164,-0.1213,-0.127,-0.132,-0.1384,-0.1407,-0.1418,-0.1419,-0.1413,-0.1399,-0.144,-0.1489,-0.1494,-0.1429,-0.1429,-0.1429,-0.1429,-0.1429,-0.114,-0.1161,-0.1215,-0.1258,-0.1314,-0.136,-0.1438,-0.143,-0.146,-0.1432,-0.1454,-0.1464,-0.1499,-0.1428,-0.1428,-0.1428,-0.1428,-0.1428,-0.1428,-0.112,-0.1128,-0.1144,-0.1195,-0.1236,-0.1305,-0.136,-0.1397,-0.1425,-0.1441,-0.1501,-0.1503,-0.142,-0.1441,-0.1441,-0.1442,-0.1442,-0.1442,-0.1442,-0.1071,-0.1095,-0.1085,-0.1135,-0.1146,-0.1195,-0.13,-0.1362,-0.1455,-0.1493,-0.1495,-0.1445,-0.1445,-0.1423,-0.1443,-0.1443,-0.1443,-0.1443,-0.1442,-0.1023,-0.1021,-0.1019,-0.102,-0.1072,-0.1138,-0.1263,-0.1444,-0.1515,-0.1584,-0.1554,-0.1551,-0.157,-0.1567,-0.155,-0.1602,-0.1602,-0.1602,-0.1602,-0.097,-0.0981,-0.0957,-0.0958,-0.1006,-0.1106,-0.1227,-0.1299,-0.1435,-0.1391,-0.1398,-0.138,-0.1381,-0.1387,-0.1387,-0.1365,-0.1368,-0.1367,-0.1366,-0.0923,-0.0935,-0.0901,-0.0917,-0.0964,-0.108,-0.1151,-0.1124,-0.1141,-0.1339,-0.1178,-0.1621,-0.1619,-0.1611,-0.164,-0.1632,-0.1606,0,0]},{"header":{"parameterUnit":"m.s-1","parameterCategory":2,"la1":30.2992,"la2":30.254,"lo1":-89.0895,"lo2":-89.0443,"dy":0.0025,"dx":0.0025,"nx":19,"ny":19,"refTime":"2026-05-12T09:00:00:Z","depth":"2","parameterNumber":3,"parameterNumberName":"V-component_of_CURRENTS"},"data":[0,0,0,0.0237,0.0236,0.0185,0.0185,0.0117,0.0116,0,0,0,0,0,0,0,0,0,0,0,0.0247,0.0247,0.0237,0.0236,0.0185,0.0185,0.0117,0.0116,0,0,0,0,0,0,0,0,0,0,0,0.0248,0.0247,0.0246,0.0236,0.0186,0.0185,0.0117,0.0158,0,0,0,0,0,0,0,0,0,0,0.0208,0.0228,0.0247,0.0246,0.0235,0.0186,0.0185,0.016,0.0155,0.0136,0,0.0116,0,0.0114,0.0111,0.011,0,0,0,0.0242,0.0232,0.0205,0.0246,0.0235,0.0186,0.021,0.0157,0.0152,0.013,0.0115,0.0113,0.0112,0.011,0.011,0.0016,0.0015,0,0,0.0245,0.0253,0.0208,0.0201,0.0204,0.0211,0.0208,0.0154,0.0149,0.0115,0.0111,0.0111,0.011,0.0109,0.0016,0.0015,0,0,0,0.0249,0.0255,0.023,0.0204,0.0194,0.021,0.0206,0.0152,0.0139,0.011,0.011,0.0109,0.0108,0.0016,0.0016,-0.0035,0,0,0,0.0251,0.0257,0.0231,0.0238,0.0195,0.0176,0.0205,0.0143,0.0137,0.0111,0.0109,0.0107,0.0017,0.0016,-0.0033,-0.0059,0,0,0,0.0253,0.0258,0.0244,0.0239,0.0213,0.0177,0.0162,0.0141,0.0136,0.011,0.0107,0.0017,0.0016,-0.003,-0.0055,-0.0049,0,0,0,0.0276,0.0245,0.0244,0.0201,0.0213,0.0158,0.0163,0.0127,0.0102,0.0109,0.0017,0.0016,-0.003,-0.0053,-0.0047,0.0014,0.001,0,0,0.025,0.0242,0.0214,0.0211,0.0144,0.0166,0.0103,0.0077,0.008,0.0037,0.0034,-0.0033,-0.0055,-0.0049,-0.0047,-0.0048,0,0,0,0.0213,0.0184,0.0166,0.0123,0.0096,0.006,0.005,0.0043,0.0004,0.0059,-0.0041,-0.0053,-0.0047,-0.0007,-0.0008,0.0011,0.0011,0.0011,0.0011,0.0179,0.0148,0.0088,0.0042,0.001,-0.0017,-0.0039,-0.0052,-0.0042,-0.0064,-0.0099,-0.0139,-0.0098,-0.0098,-0.0102,-0.0103,-0.0103,-0.0103,-0.0103,0.0109,0.0057,0.0019,-0.0047,-0.0084,-0.0132,-0.0152,-0.0143,-0.0164,-0.0151,-0.0142,-0.007,-0.0102,-0.0107,-0.0107,-0.0106,-0.0106,-0.0105,-0.0105,0.0069,0.0038,0.0001,-0.0094,-0.0171,-0.0207,-0.0259,-0.0253,-0.0218,-0.0226,-0.015,-0.0148,-0.0152,-0.0214,-0.0215,-0.0215,-0.0215,-0.0215,-0.0215,0.0042,0.0002,-0.006,-0.0147,-0.0215,-0.0286,-0.0321,-0.0312,-0.0251,-0.0203,-0.0202,-0.0175,-0.0172,-0.0158,-0.0217,-0.0216,-0.0216,-0.0216,-0.0216,-0.0042,-0.002,-0.0117,-0.0181,-0.0324,-0.0409,-0.0408,-0.0349,-0.03,-0.0246,-0.017,-0.0171,-0.0141,-0.0138,-0.0123,-0.0169,-0.0169,-0.0169,-0.0169,-0.0074,-0.0077,-0.0184,-0.0288,-0.0403,-0.0476,-0.0509,-0.0409,-0.0264,-0.0186,-0.0186,-0.0161,-0.0161,-0.0131,-0.0129,-0.0113,-0.0157,-0.0157,-0.0158,-0.0135,-0.0147,-0.0235,-0.0314,-0.0454,-0.0545,-0.0582,-0.0444,-0.0228,-0.0163,-0.0245,-0.0157,-0.0116,-0.0118,-0.0066,-0.0065,-0.0037,0,0]}],[{"header":{"parameterUnit":"m.s-1","parameterCategory":2,"la1":30.2992,"la2":30.254,"lo1":-89.0895,"lo2":-89.0443,"dy":0.0025,"dx":0.0025,"nx":19,"ny":19,"refTime":"2026-05-12T09:00:00:Z","depth":"4","parameterNumber":2,"parameterNumberName":"U-component_of_CURRENTS"},"data":[0,0,0,-0.0917,-0.0918,-0.099,-0.099,-0.1205,-0.1207,0,0,0,0,0,0,0,0,0,0,0,-0.0897,-0.0898,-0.0916,-0.0918,-0.0989,-0.099,-0.1205,-0.1207,0,0,0,0,0,0,0,0,0,0,0,-0.0897,-0.0898,-0.0898,-0.0918,-0.0989,-0.099,-0.1204,-0.112,0,0,0,0,0,0,0,0,0,0,-0.1036,-0.0997,-0.0897,-0.0898,-0.0919,-0.0989,-0.099,-0.1115,-0.1126,-0.1207,0,-0.122,0,-0.122,-0.1224,-0.1225,0,0,0,-0.0921,-0.0987,-0.1009,-0.0898,-0.0919,-0.0989,-0.0958,-0.112,-0.1132,-0.1222,-0.1222,-0.123,-0.1223,-0.1226,-0.1227,-0.1533,-0.1534,0,0,-0.0917,-0.0913,-0.1,-0.1016,-0.0944,-0.0956,-0.096,-0.1126,-0.1144,-0.1223,-0.1234,-0.1227,-0.1228,-0.123,-0.1532,-0.1533,0,0,0,-0.0904,-0.091,-0.0925,-0.1009,-0.1012,-0.0958,-0.0963,-0.1136,-0.1142,-0.1236,-0.1229,-0.1229,-0.1232,-0.153,-0.1532,-0.1555,0,0,0,-0.0902,-0.0902,-0.0923,-0.0922,-0.1008,-0.1058,-0.097,-0.113,-0.1148,-0.1228,-0.1229,-0.1235,-0.1528,-0.1531,-0.1551,-0.1564,0,0,0,-0.0893,-0.0901,-0.0911,-0.0921,-0.095,-0.1054,-0.1068,-0.1133,-0.1145,-0.1225,-0.1235,-0.1527,-0.1531,-0.1547,-0.1558,-0.1492,0,0,0,-0.0884,-0.0895,-0.0911,-0.0938,-0.0949,-0.1035,-0.1067,-0.1173,-0.1249,-0.123,-0.1529,-0.1532,-0.1546,-0.1555,-0.1491,-0.115,0,0,0,-0.0887,-0.0896,-0.0913,-0.0928,-0.0987,-0.1024,-0.1134,-0.126,-0.133,-0.148,-0.1486,-0.1552,-0.1558,-0.1492,-0.136,0,0,0,0,-0.0907,-0.0914,-0.0941,-0.0978,-0.1048,-0.1144,-0.1247,-0.1305,-0.1472,-0.1388,-0.1617,-0.1621,-0.1576,-0.1379,-0.1549,-0.1548,-0.1548,-0.1548,-0.1547,-0.089,-0.0923,-0.0953,-0.1018,-0.1115,-0.1253,-0.1336,-0.1452,-0.1528,-0.1624,-0.1687,-0.1723,-0.1525,-0.174,-0.174,-0.1741,-0.1741,-0.1741,-0.1741,-0.0871,-0.0879,-0.0966,-0.1007,-0.1143,-0.1272,-0.1474,-0.1547,-0.1686,-0.1752,-0.1705,-0.1481,-0.1745,-0.1744,-0.1743,-0.1743,-0.1743,-0.1742,-0.1742,-0.0847,-0.0848,-0.0874,-0.0948,-0.1103,-0.1305,-0.1376,-0.1597,-0.1714,-0.1747,-0.1506,-0.1723,-0.1659,-0.1735,-0.1735,-0.1735,-0.1735,-0.1735,-0.1734,-0.0795,-0.0815,-0.0812,-0.0908,-0.0957,-0.1092,-0.136,-0.1377,-0.1583,-0.1509,-0.1775,-0.1719,-0.172,-0.166,-0.1732,-0.1732,-0.1732,-0.1733,-0.1733,-0.0721,-0.0753,-0.0723,-0.0725,-0.0775,-0.0837,-0.1065,-0.1108,-0.111,-0.1062,-0.1324,-0.1345,-0.1283,-0.1293,-0.1214,-0.1157,-0.1153,-0.1149,0,-0.0674,-0.069,-0.0643,-0.0603,-0.0556,-0.0699,-0.0595,-0.0663,-0.0883,-0.0907,-0.1115,-0.1417,-0.143,-0.1364,-0.1367,-0.1276,0,0,0,-0.0604,-0.0614,-0.0557,-0.0545,-0.0488,-0.0482,-0.0576,-0.0585,-0.0855,-0.0719,-0.1043,-0.107,-0.1289,-0.1723,-0.1677,-0.1677,-0.1577,0,0]},{"header":{"parameterUnit":"m.s-1","parameterCategory":2,"la1":30.2992,"la2":30.254,"lo1":-89.0895,"lo2":-89.0443,"dy":0.0025,"dx":0.0025,"nx":19,"ny":19,"refTime":"2026-05-12T09:00:00:Z","depth":"4","parameterNumber":3,"parameterNumberName":"V-component_of_CURRENTS"},"data":[0,0,0,0.0169,0.017,0.0177,0.0177,0.0174,0.0174,0,0,0,0,0,0,0,0,0,0,0,0.016,0.016,0.0169,0.017,0.0177,0.0177,0.0174,0.0174,0,0,0,0,0,0,0,0,0,0,0,0.016,0.016,0.016,0.017,0.0177,0.0177,0.0174,0.017,0,0,0,0,0,0,0,0,0,0,0.0163,0.0158,0.016,0.016,0.017,0.0177,0.0177,0.017,0.017,0.0169,0,0.017,0,0.0178,0.0174,0.0174,0,0,0,0.0163,0.0158,0.0163,0.016,0.017,0.0177,0.0172,0.017,0.0171,0.017,0.017,0.0171,0.0178,0.0174,0.0174,0.0167,0.0167,0,0,0.0162,0.0157,0.0163,0.0164,0.0172,0.0172,0.0172,0.017,0.0168,0.017,0.0171,0.0178,0.0174,0.0174,0.0167,0.0167,0,0,0,0.0166,0.0157,0.0163,0.0163,0.0169,0.0172,0.0173,0.0168,0.0171,0.0171,0.0178,0.0174,0.0174,0.0168,0.0167,0.0118,0,0,0,0.0165,0.016,0.0163,0.0159,0.0169,0.0171,0.017,0.0171,0.0172,0.0178,0.0174,0.0174,0.0168,0.0167,0.012,0.0065,0,0,0,0.0159,0.0159,0.0161,0.0159,0.0167,0.0171,0.0174,0.0171,0.0176,0.0174,0.0174,0.0168,0.0167,0.0121,0.0069,0.0021,0,0,0,0.0153,0.0123,0.016,0.0114,0.0167,0.0124,0.0174,0.0163,0.0158,0.0174,0.0168,0.0167,0.0122,0.0071,0.0023,0.0016,0,0,0,0.0103,0.0117,0.0083,0.0116,0.0054,0.0122,0.0063,0.0099,0.0157,0.0166,0.0166,0.0119,0.0069,0.0021,0.0005,0,0,0,0,0.0057,0.0038,0.0025,-0.0002,-0.0007,-0.0007,0.0031,0.0064,0.0115,0.0156,0.0129,0.0098,0.0069,0.0075,0.0166,0.0166,0.0166,0.0166,0.0166,-0.0001,-0.0026,-0.0092,-0.0114,-0.0127,-0.0097,-0.0093,-0.0034,0.0043,0.0079,0.0067,0.0004,0.001,0.0095,0.0095,0.0094,0.0094,0.0094,0.0094,-0.0091,-0.0139,-0.0169,-0.0235,-0.0233,-0.026,-0.0199,-0.0129,-0.0083,0.0013,-0.0011,0.0034,0.0089,0.009,0.0091,0.0092,0.0092,0.0092,0.0092,-0.0125,-0.0158,-0.02,-0.0292,-0.035,-0.0329,-0.0353,-0.0261,-0.0148,-0.0151,-0.0111,-0.0046,-0.0053,-0.0122,-0.0123,-0.0123,-0.0124,-0.0124,-0.0124,-0.0138,-0.019,-0.0256,-0.0348,-0.0401,-0.0438,-0.0415,-0.0392,-0.0274,-0.0197,-0.0143,-0.007,-0.0063,-0.0066,-0.0131,-0.013,-0.0129,-0.0128,-0.0128,-0.0182,-0.0191,-0.0288,-0.0349,-0.0471,-0.0508,-0.0507,-0.0462,-0.0433,-0.0383,-0.0233,-0.0226,-0.022,-0.021,-0.0218,-0.0331,-0.0331,-0.0332,0,-0.0195,-0.0212,-0.0324,-0.0409,-0.0487,-0.0536,-0.0511,-0.0497,-0.0409,-0.0376,-0.0405,-0.0236,-0.0229,-0.0221,-0.0213,-0.0222,0,0,0,-0.0223,-0.0254,-0.0326,-0.0413,-0.0498,-0.0494,-0.0504,-0.0483,-0.0411,-0.0431,-0.0341,-0.0339,-0.0272,-0.0152,-0.0126,-0.0118,-0.0122,0,0]}]]